map of UIO home
Great Circle Mapper logo
UIO - Airport
Location
City:  Quito, Pichincha, Ecuador
Near (Alt.):Tababela
Name:Mitad del Mundo International Airport
ICAO / IATA:SEQM / UIO

Details
Type:Airport (Aerodrome, Airfield)
Use:Public/Civil, International (customs port of entry)
Latitude:006'48"S (-0.113332)
Longitude:7821'31"W (-78.358610)
Elevation:7874 ft (2400 m)
Runways:1
Longest:13451 ft (4100 m), paved

Weather
METAR:SEQM 301400Z 24004KT CAVOK 17/09 Q1025 NOSIG RMK A3029
TAF:SEQM 292200Z 3000/3024 34003KT 8000 BCFG FEW030 BKN300
FM300500 00000KT 4000 BCFG FEW005 BKN023
FM301200 VRB03KT 9999 SCT030 SCT100
FM301800 34010KT 9999 BKN033 SCT100
TEMPO 3021/3023 TSRA FEW023CB BKN030 TX23/3019Z TN11/3011Z

Related Locations
Nearby:
Farthest:PKU: 12437 mi / 20015 km
Pekanbaru [Sultan Syarif Kasim II (Simpang Tiga)], Riau, ID

Find:

   beyond  
but within

Other Information
Maps:
NOTAMs:
Links:
Sources:

  
flag of Ecuador   

Sectional Chart

Flight Planning
at skyvector.com

Satellite Image

Google Maps Satellite View

 

Copyright © 2004-2014 Karl L. Swartz. All rights reserved.
The Great Circle Mapper name and logo are trademarks of the Great Circle Mapper.
All other trademarks mentioned herein belong to their respective owners.
Please see credits for attibutions and further copyright information.

  Follow gcmap on Facebook Follow gcmap on Twitter

hCard Microformat

Geo Microformat